Location: Seasalter
(51.3333°N, 1.0167°E)
Time: 13:13:38
(UTC+00:00)

Nadezhda 4 Rocket - Pass Details

Date: 26 September 2023
Orbit: 948 x 993 km, 82.9° (Epoch: 28 November)

Event Time Altitude Azimuth Distance (km) Brightness Sun altitude
Exits shadow 02:40:07 46° 305° (NW) 1,308 4.5 -28.1°
Drops below altitude 10° 02:45:38 10° 2° (N) 2,767 6.8 -27.4°
Sets 02:48:17 0° 8° (N) 3,722 7.7 -27.1°
